timestamp,surface_pressure_avg,surface_temp_avg,battery_voltage,lat,long
2022-03-01 00:09:00+00:00,330.9464,1.21,12.17,47.84626,-54.09684
2022-03-01 00:19:00+00:00,315.8063,1.1,12.09,47.84626,-54.09684
2022-03-01 00:29:00+00:00,307.9797,1.1,12.09,47.84626,-54.09684
2022-03-01 00:39:00+00:00,307.678,1.1,12.09,47.84626,-54.09684
2022-03-01 00:49:00+00:00,296.3013,1.05,12.09,47.84626,-54.09684
2022-03-01 00:59:00+00:00,280.8364,1.1,12.09,47.84626,-54.09684
2022-03-01 01:09:00+00:00,276.0114,1.2,12.09,47.84626,-54.09684
2022-03-01 01:19:01+00:00,272.0147,1.01,12.09,47.84626,-54.09684
2022-03-01 01:29:01+00:00,259.9947,1.06,12.09,47.84626,-54.09684
2022-03-01 01:39:01+00:00,247.8231,1.1,12.09,47.84626,-54.09684
2022-03-01 01:49:01+00:00,243.1464,1.12,12.09,47.84626,-54.09684
2022-03-01 01:59:01+00:00,240.1948,1.1,12.09,47.84626,-54.09684
2022-03-01 02:09:01+00:00,232.8581,1.1,12.09,47.84626,-54.09684
2022-03-01 02:19:00+00:00,222.6714,1.1,12.09,47.84626,-54.09684
2022-03-01 02:29:00+00:00,218.6081,1.1,12.09,47.84626,-54.09684
2022-03-01 02:39:00+00:00,214.5831,1.1,12.09,47.84626,-54.09684
2022-03-01 02:49:00+00:00,207.7881,1.1,12.09,47.84626,-54.09684
2022-03-01 02:59:00+00:00,201.1065,1.14,12.09,47.84626,-54.09684
2022-03-01 03:09:00+00:00,197.4381,1.1,12.09,47.84626,-54.09684
2022-03-01 03:19:00+00:00,197.8581,1.1,12.09,47.84626,-54.09684
2022-03-01 03:29:00+00:00,197.7264,1.0,12.09,47.84626,-54.09684
2022-03-01 03:39:00+00:00,193.6281,0.9,12.09,47.84626,-54.09684
2022-03-01 03:49:00+00:00,190.7514,0.81,12.09,47.84626,-54.09684
2022-03-01 03:59:00+00:00,191.2465,0.9,12.09,47.84626,-54.09684
2022-03-01 04:09:00+00:00,188.7831,0.9,12.09,47.84626,-54.09684
2022-03-01 04:19:00+00:00,186.0515,0.89,12.09,47.84626,-54.09684
2022-03-01 04:29:00+00:00,186.7048,0.95,12.09,47.84626,-54.09684
2022-03-01 04:39:00+00:00,185.2315,1.0,12.09,47.84626,-54.09684
2022-03-01 04:49:00+00:00,181.3981,1.05,12.09,47.84626,-54.09684
2022-03-01 04:59:00+00:00,182.3415,1.1,12.09,47.84626,-54.09684
2022-03-01 05:09:00+00:00,185.1448,1.1,12.09,47.84626,-54.09684
2022-03-01 05:19:00+00:00,182.6615,1.11,12.09,47.84626,-54.09684
2022-03-01 05:29:00+00:00,183.5431,1.15,12.09,47.84626,-54.09684
2022-03-01 05:39:00+00:00,190.3665,1.16,12.09,47.84626,-54.09684
2022-03-01 05:49:00+00:00,193.5398,1.16,12.09,47.84626,-54.09684
2022-03-01 05:59:00+00:00,194.8065,1.18,12.09,47.84626,-54.09684
2022-03-01 06:09:00+00:00,203.4898,1.16,12.09,47.84626,-54.09684
2022-03-01 06:19:01+00:00,213.4398,1.14,12.09,47.84626,-54.09684
2022-03-01 06:29:01+00:00,217.3831,1.14,12.09,47.84626,-54.09684
2022-03-01 06:39:01+00:00,225.4164,1.14,12.09,47.84626,-54.09684
2022-03-01 06:49:01+00:00,235.3264,1.13,12.09,47.84626,-54.09684
2022-03-01 06:59:01+00:00,244.3415,1.12,12.09,47.84626,-54.09684
2022-03-01 07:09:01+00:00,250.7481,1.1,12.09,47.84626,-54.09684
2022-03-01 07:19:00+00:00,254.5181,1.1,12.09,47.84626,-54.09684
2022-03-01 07:29:00+00:00,260.7697,1.08,12.09,47.84626,-54.09684
2022-03-01 07:39:00+00:00,268.6348,1.04,12.09,47.84626,-54.09684
2022-03-01 07:49:00+00:00,275.5131,0.76,12.09,47.84626,-54.09684
2022-03-01 07:59:00+00:00,282.0631,0.7,12.09,47.84626,-54.09684
2022-03-01 08:09:00+00:00,291.8914,0.7,12.09,47.84626,-54.09684
2022-03-01 08:19:00+00:00,302.7564,0.7,12.09,47.84626,-54.09684
2022-03-01 08:29:00+00:00,304.8563,0.69,12.09,47.84626,-54.09684
2022-03-01 08:39:00+00:00,311.6364,0.71,12.09,47.84626,-54.09684
2022-03-01 08:49:00+00:00,323.4329,0.76,12.09,47.84626,-54.09684
2022-03-01 08:59:00+00:00,323.998,0.7,12.09,47.84626,-54.09684
2022-03-01 09:09:00+00:00,322.288,0.73,12.09,47.84626,-54.09684
2022-03-01 09:19:00+00:00,334.8413,0.77,12.09,47.84626,-54.09684
2022-03-01 09:29:00+00:00,346.103,0.74,12.09,47.84626,-54.09684
2022-03-01 09:39:00+00:00,344.49800000000016,0.7,12.09,47.84626,-54.09684
2022-03-01 09:49:00+00:00,346.918,0.7,12.09,47.84626,-54.09684
2022-03-01 09:59:00+00:00,356.4097,0.7,12.09,47.84626,-54.09684
2022-03-01 10:09:00+00:00,362.0596,0.7,12.09,47.84626,-54.09684
2022-03-01 10:19:00+00:00,359.80300000000005,0.66,12.01,47.84626,-54.09684
2022-03-01 10:29:00+00:00,362.658,0.65,12.01,47.84626,-54.09684
2022-03-01 10:39:00+00:00,369.1597,0.67,12.01,47.84626,-54.09684
2022-03-01 10:49:00+00:00,367.5713,0.69,12.01,47.84626,-54.09684
2022-03-01 10:59:00+00:00,367.5596,0.7,12.01,47.84626,-54.09684
2022-03-01 11:09:00+00:00,368.858,0.6,12.01,47.84626,-54.09684
2022-03-01 11:19:00+00:00,369.1663,0.6,12.01,47.84626,-54.09684
2022-03-01 11:29:00+00:00,369.3862,0.6,12.01,47.84626,-54.09684
2022-03-01 11:39:00+00:00,367.9562,0.65,12.01,47.84626,-54.09684
2022-03-01 11:49:00+00:00,367.9396,0.7,12.01,47.84626,-54.09684
2022-03-01 11:59:00+00:00,368.2413,0.7,12.01,47.84626,-54.09684
2022-03-01 12:09:00+00:00,365.9346,0.8,12.01,47.84626,-54.09684
2022-03-01 12:19:00+00:00,362.6614,0.84,12.01,47.84626,-54.09684
2022-03-01 12:29:00+00:00,356.3297,0.8,12.01,47.84626,-54.09684
2022-03-01 12:39:00+00:00,350.3663,0.78,12.01,47.84626,-54.09684
2022-03-01 12:49:00+00:00,346.0162,0.8,12.01,47.84626,-54.09684
2022-03-01 12:59:00+00:00,340.3879,0.8,12.01,47.84626,-54.09684
2022-03-01 13:09:00+00:00,328.348,0.7,12.01,47.84626,-54.09684
2022-03-01 13:19:00+00:00,318.108,0.7,12.01,47.84626,-54.09684
2022-03-01 13:29:00+00:00,311.1931,0.7,12.01,47.84626,-54.09684
2022-03-01 13:39:00+00:00,301.5264,0.7,12.01,47.84626,-54.09684
2022-03-01 13:49:00+00:00,290.8431,0.68,12.01,47.84626,-54.09684
2022-03-01 13:59:00+00:00,282.6114,0.72,12.01,47.84626,-54.09684
2022-03-01 14:09:00+00:00,278.4613,0.97,12.01,47.84626,-54.09684
2022-03-01 14:19:00+00:00,271.8014,0.94,12.01,47.84626,-54.09684
2022-03-01 14:29:00+00:00,263.0564,0.9,12.01,47.84626,-54.09684
2022-03-01 14:39:00+00:00,252.6514,0.9,12.01,47.84626,-54.09684
2022-03-01 14:49:00+00:00,249.5815,0.97,12.01,47.84626,-54.09684
2022-03-01 14:59:00+00:00,245.8981,1.0,12.01,47.84626,-54.09684
2022-03-01 15:09:00+00:00,239.5647,1.0,12.01,47.84626,-54.09684
2022-03-01 15:19:01+00:00,236.4431,1.0,12.09,47.84626,-54.09684
2022-03-01 15:29:01+00:00,237.4948,1.0,12.09,47.84626,-54.09684
2022-03-01 15:39:01+00:00,231.9014,1.03,12.09,47.84626,-54.09684
2022-03-01 15:49:01+00:00,227.1231,1.07,12.09,47.84626,-54.09684
2022-03-01 15:59:01+00:00,226.3814,1.1,12.09,47.84626,-54.09684
2022-03-01 16:09:01+00:00,222.6031,1.1,12.09,47.84626,-54.09684
2022-03-01 16:19:00+00:00,216.7614,1.1,12.09,47.84626,-54.09684
2022-03-01 16:29:00+00:00,214.7548,1.1,12.09,47.84626,-54.09684
2022-03-01 16:39:00+00:00,213.2048,1.1,12.09,47.84626,-54.09684
2022-03-01 16:49:00+00:00,207.5048,1.1,12.09,47.84626,-54.09684
2022-03-01 16:59:00+00:00,202.1298,1.1,12.09,47.84626,-54.09684
2022-03-01 17:09:00+00:00,202.1315,1.1,12.09,47.84626,-54.09684
2022-03-01 17:19:00+00:00,203.0681,1.1,12.09,47.84626,-54.09684
2022-03-01 17:29:00+00:00,200.8748,1.1,12.09,47.84626,-54.09684
2022-03-01 17:39:00+00:00,204.0448,1.1,12.09,47.84626,-54.09684
2022-03-01 17:49:00+00:00,208.0531,1.1,12.09,47.84626,-54.09684
2022-03-01 17:59:00+00:00,205.3965,1.1,12.09,47.84626,-54.09684
2022-03-01 18:09:00+00:00,207.2581,1.13,12.09,47.84626,-54.09684
2022-03-01 18:19:00+00:00,212.0314,1.18,12.09,47.84626,-54.09684
2022-03-01 18:29:00+00:00,212.9448,1.2,12.09,47.84626,-54.09684
2022-03-01 18:39:00+00:00,215.0531,1.2,12.09,47.84626,-54.09684
2022-03-01 18:49:00+00:00,222.5098,1.2,12.09,47.84626,-54.09684
2022-03-01 18:59:00+00:00,230.0198,1.2,12.09,47.84626,-54.09684
2022-03-01 19:09:00+00:00,232.4214,1.23,12.09,47.84626,-54.09684
2022-03-01 19:19:00+00:00,235.6765,1.25,12.09,47.84626,-54.09684
2022-03-01 19:29:00+00:00,240.7281,1.25,12.09,47.84626,-54.09684
2022-03-01 19:39:00+00:00,246.3764,1.25,12.09,47.84626,-54.09684
2022-03-01 19:49:00+00:00,249.2698,1.23,12.09,47.84626,-54.09684
2022-03-01 19:59:00+00:00,254.1464,1.2,12.09,47.84626,-54.09684
2022-03-01 20:09:00+00:00,263.5831,1.2,12.09,47.84626,-54.09684
2022-03-01 20:19:00+00:00,272.9281,1.2,12.09,47.84626,-54.09684
2022-03-01 20:29:00+00:00,276.7414,1.1,12.09,47.84626,-54.09684
2022-03-01 20:39:00+00:00,282.2864,1.1,12.09,47.84626,-54.09684
2022-03-01 20:49:00+00:00,294.2247,1.1,12.09,47.84626,-54.09684
2022-03-01 20:59:00+00:00,303.8563,1.1,12.09,47.84626,-54.09684
2022-03-01 21:09:00+00:00,307.328,1.04,12.09,47.84626,-54.09684
2022-03-01 21:19:01+00:00,312.7014,1.09,12.09,47.84626,-54.09684
2022-03-01 21:29:01+00:00,323.6647,1.1,12.09,47.84626,-54.09684
2022-03-01 21:39:01+00:00,328.7346,1.1,12.09,47.84626,-54.09684
2022-03-01 21:49:01+00:00,330.7546,1.14,12.09,47.84626,-54.09684
2022-03-01 21:59:01+00:00,339.9129,1.19,12.09,47.84626,-54.09684
2022-03-01 22:09:01+00:00,350.6313,1.2,12.09,47.84626,-54.09684
2022-03-01 22:19:00+00:00,351.1913,1.17,12.09,47.84626,-54.09684
2022-03-01 22:29:00+00:00,352.8663,1.1,12.09,47.84626,-54.09684
2022-03-01 22:39:00+00:00,359.163,1.1,12.09,47.84626,-54.09684
2022-03-01 22:49:00+00:00,363.7413,1.1,12.09,47.84626,-54.09684
2022-03-01 22:59:00+00:00,359.5112,1.1,12.09,47.84626,-54.09684
2022-03-01 23:09:00+00:00,361.0046,1.1,12.09,47.84626,-54.09684
2022-03-01 23:19:01+00:00,364.038,1.1,12.09,47.84626,-54.09684
2022-03-01 23:29:01+00:00,361.198,1.1,12.09,47.84626,-54.09684
2022-03-01 23:39:01+00:00,363.5063,1.1,12.09,47.84626,-54.09684
2022-03-01 23:49:01+00:00,363.7196,1.1,12.09,47.84626,-54.09684
2022-03-01 23:59:01+00:00,355.1363,1.06,12.09,47.84626,-54.09684
